FW8872 Weather Reports


time (UTC)temp
F
wind
direction
speed
knots
gust
knots
rain 1hr
in
rain 24hr
in
rain mn
in
humidity
%
barometer
mb
20220812003315 97 180 2.6 17.4 0.00 0.00 0.00 28 1012.5
20220812001114 98 181 3.5 9.6 0.00 0.00 0.00 27 1012.3
20220811235120 98 17 3.5 12.2 0.00 0.00 0.00 28 1012.5
20220811231915 99 176 3.5 15.6 0.00 0.00 0.00 28 1012.5
20220811224616 98 180 2.6 15.6 0.00 0.00 0.00 27 1012.9
20220811223513 100 199 3.5 14.8 0.00 0.00 0.00 27 1013.0
20220811222314 100 15 3.5 18.2 0.00 0.00 0.00 28 1013.1
20220811221917 100 15 3.5 18.2 0.00 0.00 0.00 28 1013.1
20220811214914 99 2 3.5 12.2 0.00 0.00 0.00 28 1013.6
20220811213316 98 327 2.6 7.0 0.00 0.00 0.00 30 1014.1
20220811210022 98 137 3.5 15.6 0.00 0.00 0.00 29 1014.4
20220811201111 95 336 3.5 7.0 0.00 0.00 0.00 35 1015.0
20220811194811 96 325 3.5 20.9 0.00 0.00 0.00 35 1015.4
20220811194715 96 325 3.5 20.9 0.00 0.00 0.00 35 1015.4
20220811194013 96 312 3.5 9.6 0.00 0.00 0.00 36 1015.4
20220811185816 95 167 3.5 9.6 0.00 0.00 0.00 38 1016.4
20220811185446 95 167 3.5 9.6 0.00 0.00 0.00 38 1016.4
20220811182711 93 212 2.6 6.1 0.00 0.00 0.00 40 1016.8
20220811181018 94 216 2.6 7.0 0.00 0.00 0.00 39 1017.2
20220811174911 93 315 2.6 13.0 0.00 0.00 0.00 38 1017.4
20220811172517 92 327 2.6 6.1 0.00 0.00 0.00 41 1017.7
20220811171213 92 270 3.5 7.0 0.00 0.00 0.00 42 1017.9
20220811163714 91 292 3.5 6.1 0.00 0.00 0.00 42 1018.2
20220811162113 91 344 3.5 7.0 0.00 0.00 0.00 43 1018.2
20220811160315 91 228 2.6 6.1 0.00 0.00 0.00 45 1018.1
20220811155546 91 228 2.6 6.1 0.00 0.00 0.00 45 1018.1
20220811153915 89 250 2.6 7.0 0.00 0.00 0.00 46 1017.9
20220811152915 88 230 2.6 7.0 0.00 0.00 0.00 48 1018.1
20220811152213 87 218 3.5 7.0 0.00 0.00 0.00 49 1017.9
20220811152014 87 218 3.5 7.0 0.00 0.00 0.00 49 1017.9
20220811150413 86 244 2.6 3.5 0.00 0.00 0.00 50 1018.1
20220811143021 83 215 2.6 6.1 0.00 0.00 0.00 54 1017.9
20220811140212 79 202 2.6 7.0 0.00 0.00 0.00 59 1017.9
20220811132117 75 226 2.6 4.3 0.00 0.00 0.00 65 1017.6
20220811130016 74 291 2.6 4.3 0.00 0.00 0.00 66 1017.5
20220811124320 73 242 2.6 5.2 0.00 0.00 0.00 67 1017.6
20220811121816 74 230 2.6 7.8 0.00 0.00 0.00 66 1017.3
20220811121615 74 230 2.6 7.8 0.00 0.00 0.00 66 1017.3
20220811114616 74 227 2.6 5.2 0.00 0.00 0.00 65 1017.1
20220811110613 75 249 2.6 5.2 0.00 0.00 0.00 63 1017.0
20220811105814 75 238 2.6 4.3 0.00 0.00 0.00 63 1017.0
20220811103214 76 245 2.6 4.3 0.00 0.00 0.00 62 1016.7
20220811103111 76 239 2.6 6.1 0.00 0.00 0.00 62 1016.7
20220811102413 76 239 2.6 6.1 0.00 0.00 0.00 62 1016.7
20220811101510 76 247 2.6 4.3 0.00 0.00 0.00 61 1017.0
20220811095614 76 245 2.6 4.3 0.00 0.00 0.00 61 1016.7
20220811092146 76 237 2.6 5.2 0.00 0.00 0.00 60 1017.1
20220811091715 76 237 2.6 5.2 0.00 0.00 0.00 60 1017.1
20220811085144 76 239 2.6 4.3 0.00 0.00 0.00 61 1017.3
20220811084712 76 239 2.6 4.3 0.00 0.00 0.00 61 1017.3
20220811075913 76 258 2.6 4.3 0.00 0.00 0.00 61 1017.5
20220811075114 76 255 2.6 5.2 0.00 0.00 0.00 61 1017.6
20220811073013 76 254 2.6 4.3 0.00 0.00 0.00 61 1017.6
20220811072512 76 254 2.6 4.3 0.00 0.00 0.00 61 1017.6
20220811063912 77 226 3.5 7.0 0.00 0.00 0.00 60 1017.6
20220811054811 78 226 2.6 5.2 0.00 0.00 0.00 59 1017.9
20220811052013 78 223 2.6 7.0 0.00 0.00 0.00 58 1017.8
20220811050213 79 221 2.6 7.0 0.00 0.00 0.00 57 1017.8
20220811045714 79 223 2.6 6.1 0.00 0.00 0.00 57 1017.8
20220811042713 80 226 2.6 5.2 0.00 0.00 0.00 56 1017.7
20220811042315 80 226 2.6 5.2 0.00 0.00 0.00 56 1017.7
20220811041713 80 210 3.5 7.0 0.00 0.00 0.00 55 1017.7
20220811041617 80 210 3.5 7.0 0.00 0.00 0.00 55 1017.7
20220811040214 80 201 3.5 7.0 0.00 0.00 0.00 54 1017.7
20220811033018 82 212 2.6 4.3 0.00 0.01 0.00 51 1017.6
20220811032914 82 212 2.6 4.3 0.00 0.01 0.00 51 1017.6
20220811030323 83 200 2.6 6.1 0.00 0.01 0.00 51 1017.3
20220811025913 83 210 2.6 5.2 0.00 0.01 0.00 50 1017.2
20220811025715 83 210 2.6 5.2 0.00 0.01 0.00 50 1017.2
20220811023312 84 177 2.6 7.0 0.00 0.01 0.00 48 1017.0
20220811015016 86 182 2.6 4.3 0.00 0.01 0.00 43 1016.6
20220811013713 87 285 2.6 7.0 0.00 0.02 0.00 41 1016.4
20220811013613 87 285 2.6 7.0 0.00 0.02 0.00 41 1016.4
20220811013016 87 285 2.6 7.0 0.00 0.02 0.00 41 1016.4
20220811012013 88 200 2.6 10.4 0.00 0.02 0.00 40 1016.2
20220811011919 89 161 2.6 7.0 0.00 0.02 0.00 40 1016.2
20220811011418 89 161 2.6 7.0 0.00 0.02 0.00 40 1016.2